Danville, IN

2:07 AM EDT on August 19, 2017 (GMT -0400)
Vermilion County

Weather History for KDNV - July, 2013

Change the Weather History Date:

Saturday, July 27, 2013

  Actual Average (KLAF) Record (KLAF)
Temperature  
Mean Temperature 64 °F -  
Max Temperature 78 °F 85 °F 98 °F (1997)
Min Temperature 51 °F 63 °F 47 °F (1977)
Growing Degree Days 14 (Base 50)    
Moisture  
Dew Point 56 °F    
Average Humidity 70    
Maximum Humidity 92    
Minimum Humidity 41    
Precipitation  
Precipitation 0.00 in - - ()
Sea Level Pressure  
Sea Level Pressure 29.90 in    
Wind  
Wind Speed 7 mph (WNW)    
Max Wind Speed 15 mph    
Max Gust Speed 23 mph    
Visibility 8 miles    
Events      
Averages and records for this station are not official NWS values.
T = Trace of Precipitation, MM = Missing Value Source: NWS Daily Summary

Daily Weather History Graph

Daily Weather History Graph

Search for Another Location

Airport or City:

Trip Planner

Search our weather history database for the weather conditions in past years. The results will help you decide how hot, cold, wet, or windy it might be!

Date:

Astronomy

Jul. 27, 2013 Rise Set
Actual Time 5:43 AM CDT 8:09 PM CDT
Civil Twilight 5:13 AM CDT 8:40 PM CDT
Nautical Twilight 4:34 AM CDT 9:18 PM CDT
Astronomical Twilight 3:52 AM CDT 10:00 PM CDT
Moon 10:55 PM CDT (7/27) 11:24 AM CDT (7/27)
Length of Visible Light 15h 27m
Length of Day
14h 25m
Waning Gibbous, 70% of the Moon is Illuminated
Jul 27
Waning Gibbous
Jul 29
Last Quarter
Aug 6
New
Aug 14
First Quarter
Aug 20
Full

Hourly Weather History & Observations

Time (CDT) Temp. Dew Point Humidity Pressure Visibility Wind Dir Wind Speed Gust Speed Precip Events Conditions
12:15 AM 68.2 °F 65.3 °F 90% 29.89 in 7.0 mi SSW 4.6 mph - N/A   Overcast
12:35 AM 68.5 °F 65.7 °F 90% 29.90 in 7.0 mi SSW 4.6 mph - N/A   Overcast
12:55 AM 68.9 °F 65.8 °F 90% 29.89 in 7.0 mi SSW 4.6 mph - N/A   Overcast
1:15 AM 68.9 °F 66.0 °F 90% 29.89 in 7.0 mi SW 5.8 mph - N/A   Overcast
1:35 AM 69.1 °F 66.2 °F 91% 29.89 in 7.0 mi WSW 4.6 mph - N/A   Overcast
1:55 AM 69.3 °F 66.4 °F 91% 29.89 in 10.0 mi West 4.6 mph - N/A   Overcast
2:15 AM 68.9 °F 66.2 °F 91% 29.89 in 10.0 mi WNW 6.9 mph - N/A   Mostly Cloudy
2:35 AM 67.8 °F 64.2 °F 88% 29.87 in 10.0 mi NW 6.9 mph - N/A   Scattered Clouds
2:55 AM 66.2 °F 62.1 °F 86% 29.87 in 10.0 mi WNW 5.8 mph - N/A   Unknown
3:15 AM 64.4 °F 60.4 °F 87% 29.88 in 10.0 mi West 4.6 mph - N/A   Unknown
3:35 AM 63.7 °F 60.3 °F 89% 29.88 in 10.0 mi West 5.8 mph - N/A   Unknown
3:55 AM 63.1 °F 59.9 °F 89% 29.88 in 7.0 mi WNW 4.6 mph - N/A   Unknown
4:15 AM 61.9 °F 58.8 °F 90% 29.87 in 10.0 mi West 4.6 mph - N/A   Unknown
4:35 AM 61.2 °F 58.3 °F 90% 29.88 in 7.0 mi WNW 5.8 mph - N/A   Unknown
4:55 AM 61.0 °F 58.1 °F 90% 29.88 in 7.0 mi WNW 5.8 mph - N/A   Unknown
5:15 AM 60.8 °F 57.7 °F 90% 29.89 in 10.0 mi WNW 5.8 mph - N/A   Unknown
5:35 AM 59.7 °F 56.8 °F 90% 29.89 in 7.0 mi WNW 6.9 mph - N/A   Unknown
5:55 AM 59.0 °F 56.3 °F 91% 29.90 in 7.0 mi West 4.6 mph - N/A   Unknown
6:15 AM 58.5 °F 56.1 °F 92% 29.90 in 10.0 mi West 4.6 mph - N/A   Unknown
6:35 AM 60.6 °F 58.1 °F 91% 29.90 in 10.0 mi WNW 4.6 mph - N/A   Unknown
6:55 AM 62.1 °F 58.1 °F 87% 29.90 in 10.0 mi WNW 5.8 mph - N/A   Unknown
7:15 AM 63.5 °F 58.5 °F 84% 29.91 in 10.0 mi West 6.9 mph - N/A   Unknown
7:35 AM 64.4 °F 59.0 °F 83% 29.91 in 10.0 mi West 6.9 mph - N/A   Clear
7:55 AM 66.2 °F 59.4 °F 79% 29.90 in 10.0 mi WNW 6.9 mph - N/A   Unknown
8:15 AM 66.7 °F 59.2 °F 77% 29.90 in 10.0 mi WNW 6.9 mph - N/A   Unknown
8:55 AM 69.1 °F 60.6 °F 74% 29.90 in 10.0 mi West 5.8 mph - N/A   Clear
9:15 AM 70.0 °F 60.4 °F 72% 29.90 in 7.0 mi WNW 6.9 mph - N/A   Clear
9:35 AM 71.6 °F 61.0 °F 69% 29.90 in 10.0 mi WNW 5.8 mph - N/A   Clear
9:55 AM 73.2 °F 61.5 °F 67% 29.89 in 10.0 mi West 8.1 mph - N/A   Clear
10:15 AM 75.2 °F 62.1 °F 64% 29.89 in 10.0 mi West 5.8 mph - N/A   Clear
10:35 AM 75.4 °F 61.7 °F 62% 29.89 in 10.0 mi West 5.8 mph - N/A   Scattered Clouds
10:55 AM 75.7 °F 59.7 °F 57% 29.89 in 7.0 mi West 11.5 mph 16.1 mph N/A   Scattered Clouds
11:15 AM 75.0 °F 59.9 °F 59% 29.89 in 5.0 mi NW 11.5 mph 16.1 mph N/A   Haze
11:35 AM 75.7 °F 59.5 °F 57% 29.90 in 7.0 mi WNW 10.4 mph - N/A   Mostly Cloudy
11:55 AM 74.3 °F 60.4 °F 62% 29.89 in 7.0 mi WNW 10.4 mph 18.4 mph N/A   Scattered Clouds
12:15 PM 75.4 °F 59.5 °F 58% 29.89 in 7.0 mi WNW 11.5 mph - N/A   Scattered Clouds
12:35 PM 75.6 °F 58.6 °F 56% 29.90 in 5.0 mi WNW 9.2 mph 23.0 mph N/A   Haze
1:15 PM 74.1 °F 57.2 °F 55% 29.89 in 7.0 mi West 12.7 mph 18.4 mph N/A   Scattered Clouds
1:35 PM 76.5 °F 55.0 °F 47% 29.89 in 7.0 mi WNW 12.7 mph 18.4 mph N/A   Scattered Clouds
1:55 PM 77.7 °F 55.8 °F 47% 29.88 in 5.0 mi WNW 12.7 mph 20.7 mph N/A   Haze
2:15 PM 76.6 °F 54.1 °F 46% 29.88 in 7.0 mi West 15.0 mph 21.9 mph N/A   Scattered Clouds
2:35 PM 75.6 °F 52.9 °F 45% 29.88 in 7.0 mi WNW 10.4 mph - N/A   Scattered Clouds
2:55 PM 74.3 °F 53.8 °F 49% 29.89 in 7.0 mi WNW 12.7 mph 18.4 mph N/A   Scattered Clouds
3:15 PM 75.2 °F 51.8 °F 44% 29.89 in 7.0 mi West 10.4 mph 18.4 mph N/A   Mostly Cloudy
3:35 PM 73.2 °F 50.7 °F 45% 29.89 in 7.0 mi WNW 10.4 mph 17.3 mph N/A   Scattered Clouds
3:55 PM 74.3 °F 52.2 °F 46% 29.89 in 7.0 mi West 11.5 mph 20.7 mph N/A   Scattered Clouds
4:15 PM 74.7 °F 53.8 °F 48% 29.89 in 7.0 mi WNW 8.1 mph 18.4 mph N/A   Scattered Clouds
4:35 PM 73.8 °F 52.2 °F 47% 29.89 in 7.0 mi West 11.5 mph 21.9 mph N/A   Scattered Clouds
4:55 PM 74.3 °F 52.0 °F 46% 29.89 in 7.0 mi WNW 12.7 mph 19.6 mph N/A   Scattered Clouds
5:15 PM 73.4 °F 51.4 °F 46% 29.89 in 7.0 mi WNW 9.2 mph - N/A   Scattered Clouds
5:35 PM 73.9 °F 48.7 °F 41% 29.89 in 7.0 mi West 12.7 mph 21.9 mph N/A   Clear
5:55 PM 73.4 °F 48.7 °F 42% 29.89 in 7.0 mi WNW 11.5 mph - N/A   Clear
6:15 PM 73.4 °F 48.4 °F 41% 29.90 in 7.0 mi WNW 11.5 mph - N/A   Clear
6:35 PM 70.0 °F 50.5 °F 50% 29.90 in 7.0 mi WNW 6.9 mph 17.3 mph N/A   Scattered Clouds
6:55 PM 69.4 °F 51.4 °F 53% 29.91 in 7.0 mi NW 12.7 mph 18.4 mph N/A   Scattered Clouds
7:15 PM 67.1 °F 51.8 °F 58% 29.92 in 7.0 mi NW 11.5 mph 18.4 mph N/A   Scattered Clouds
7:35 PM 66.7 °F 51.1 °F 57% 29.92 in 7.0 mi NW 11.5 mph 19.6 mph N/A   Unknown
7:55 PM 64.2 °F 50.0 °F 60% 29.93 in 10.0 mi WNW 8.1 mph - N/A   Unknown
8:15 PM 63.1 °F 48.7 °F 59% 29.93 in 10.0 mi WNW 6.9 mph - N/A   Unknown
8:35 PM 61.7 °F 49.3 °F 64% 29.94 in 10.0 mi NW 4.6 mph - N/A   Unknown
8:55 PM 61.0 °F 49.8 °F 67% 29.94 in 10.0 mi WNW 5.8 mph - N/A   Unknown
9:15 PM 59.2 °F 48.7 °F 68% 29.95 in 10.0 mi WNW 4.6 mph - N/A   Unknown
9:35 PM 56.8 °F 48.2 °F 73% 29.95 in 10.0 mi WNW 4.6 mph - N/A   Unknown
9:55 PM 55.2 °F 47.5 °F 75% 29.95 in 10.0 mi West 4.6 mph - N/A   Unknown
10:15 PM 54.0 °F 47.3 °F 78% 29.95 in 10.0 mi West 4.6 mph - N/A   Unknown
10:35 PM 53.8 °F 47.8 °F 80% 29.95 in 10.0 mi West 4.6 mph - N/A   Clear
10:55 PM 53.2 °F 47.8 °F 82% 29.95 in 10.0 mi West 4.6 mph - N/A   Clear
11:15 PM 52.5 °F 46.8 °F 81% 29.95 in 10.0 mi West 4.6 mph - N/A   Clear
11:35 PM 52.5 °F 47.3 °F 82% 29.95 in 10.0 mi West 4.6 mph - N/A   Unknown
11:55 PM 51.3 °F 46.4 °F 83% 29.95 in 10.0 mi West 4.6 mph - N/A   Unknown